Location: ??
(35.5386°N, 139.7291°E)
Time: 23:28:29
(UTC+00:00)

Daily predictions for brighter satellites

Satellite Brightness Start Highest point End
(mag) Time Altitude Azimuth Time Altitude Azimuth Time Altitude Azimuth
CZ-3 R/B 4.2 16:27:52 10° W 17:25:43 66° S 17:36:59 10° ESE
CZ-3 Stage 3 4.0 18:04:29 61° SSE 18:04:29 61° SSE 18:26:23 10° ESE
Cosmos 2333 Rocket 4.0 18:55:43 21° NNE 18:58:03 27° ENE 19:02:51 10° ESE
Cosmos 2322 Rocket 4.1 19:05:29 15° NNE 19:08:52 25° ENE 19:13:26 10° ESE
USA 59 Rocket 1.4 19:13:49 39° SSE 19:13:49 39° SSE 19:17:36 10° SSE
Cosmos 1428 Rocket 4.3 19:11:16 10° S 19:17:29 81° W 19:23:48 10° N
Cosmos 1092 Rocket 4.4 19:16:46 10° S 19:22:56 63° E 19:29:05 10° NNE
NOSS 2-1 (E) 4.0 19:33:18 56° S 19:33:18 56° S 19:38:01 10° SSE
Cosmos 1937 Rocket 3.6 19:36:22 56° SW 19:36:22 56° SW 19:40:43 10° S
Cosmos 2195 Rocket 4.3 19:29:48 10° SSW 19:36:02 72° W 19:42:22 10° N
NOSS 3-1 (C) 4.1 19:33:19 40° NW 19:36:44 76° WSW 19:46:02 10° SSE
IRS-1D 3.6 19:31:56 10° NNE 19:37:00 73° ESE 19:42:09 10° S
Cosmos 2237 4.3 19:39:12 53° WSW 19:39:12 53° WSW 19:44:25 10° S
Cosmos 858 Rocket 4.3 19:38:13 59° NNW 19:39:14 85° WSW 19:44:25 10° SSE
SL-16 R/B 2.2 19:37:16 38° NNW 19:39:32 81° ENE 19:45:12 10° SSE
OAO 3 Rocket 3.2 19:43:32 60° SSW 19:44:07 68° SSE 19:48:46 10° E
Meteor 2-3 Rocket 4.2 19:39:43 10° SSW 19:46:52 39° NNW 19:50:47 10° N
COSMOS 2455 3.7 19:49:31 31° SW 19:49:31 31° SW 19:53:53 10° S
NOSS 2-1 (C) 4.5 19:49:45 37° SW 19:49:45 37° SW 19:54:24 10° S
BREEZE-M DEB (TANK) 3.6 19:52:24 41° ENE 19:52:24 41° ENE 19:54:00 10° NE
Tiangong 0.7 19:53:22 11° S 19:53:22 11° S 19:53:40 10° S
Meteor 1-26 Rocket 4.3 19:52:14 10° N 19:57:53 82° E 20:03:43 10° S
Cosmos 1814 Rocket 3.9 19:53:27 10° SSW 19:58:37 63° WNW 20:03:52 10° N
Cosmos 2278 3.6 20:02:01 25° NNW 20:05:20 70° WSW 20:10:55 10° S
OAO 2 Rocket 3.3 20:03:38 36° W 20:05:48 84° S 20:10:58 10° E
Cosmos 158 Rocket 3.9 20:01:49 10° SSW 20:07:05 63° WNW 20:12:17 10° N
ISS -2.6 20:05:05 13° SSW 20:07:47 43° SE 20:11:00 10° ENE
Cosmos 405 Rocket 2.1 20:07:26 10° SSW 20:10:39 73° W 20:13:54 10° N
BREEZE-M DEB (TANK) 4.3 20:06:32 10° SW 20:12:53 50° SE 20:15:38 10° ENE
OAO 3 Copernicus 4.3 20:16:56 29° W 20:19:33 81° S 20:24:33 10° E
Centaur AC-119 4.1 20:17:34 15° SW 20:20:10 24° S 20:23:42 10° SE
Cosmos 2221 4.1 20:17:07 10° NNE 20:20:54 34° E 20:24:40 10° SE
IRIDIUM 114 4.3 20:15:45 10° S 20:20:58 85° E 20:26:12 10° N
SKYMED 2 3.8 20:21:35 10° S 20:25:46 49° W 20:29:27 13° NNW
ATLAS 2AS CENTAUR R/B 2.7 20:19:04 10° SW 20:26:08 66° WNW 20:33:02 10° NNE
Cosmos 2058 Rocket 3.4 20:23:28 17° NNW 20:26:34 43° W 20:30:41 10° SSW
Cosmos 2360 Rocket 2.1 20:21:35 11° NNW 20:27:07 81° WSW 20:32:42 10° SSE
IRIDIUM 103 4.2 20:24:55 10° S 20:30:07 78° W 20:35:21 10° N
Helios 1A Rocket 2.2 20:27:22 10° S 20:30:40 79° WSW 20:34:01 10° NNW
Cosmos 1484 Rocket 2.2 20:28:39 10° N 20:32:02 82° WNW 20:35:22 10° SSW
NOSS 8 (A) 4.3 20:35:36 17° NNW 20:37:52 83° ENE 20:41:38 10° SSE
Cosmos 2219 Rocket 2.3 20:36:29 10° NNW 20:42:09 78° ENE 20:47:44 10° SSE
Cosmos 2333 Rocket 2.8 20:37:46 13° NW 20:42:22 38° WSW 20:47:35 10° S
IGS 5A 3.2 20:39:58 10° N 20:43:58 72° WNW 20:47:57 10° SSW
COSMO-SKYMED 1 2.8 20:41:41 10° S 20:45:34 42° W 20:49:30 10° NNW
NOSS 3-1 (A) 4.4 20:39:48 10° NW 20:47:27 58° WSW 20:56:34 10° SSE
Cosmos 1437 Rocket 3.4 20:44:16 10° N 20:47:39 50° E 20:51:03 10° SSE
Cosmos-2242 4.0 20:44:50 12° NW 20:47:47 25° W 20:51:11 10° SW
Cosmos 1758 Rocket 4.0 20:43:43 10° SSW 20:47:48 37° W 20:51:53 10° N
Thor Agena Rocket 4.0 20:43:10 10° NNE 20:48:10 65° ESE 20:53:08 10° S
IRIDIUM 106 4.5 20:43:24 10° SSW 20:48:28 51° W 20:53:32 10° N
Cosmos 2285 Rocket 4.1 20:42:31 10° NNW 20:48:51 66° WSW 20:55:11 10° S
Cosmos 2322 Rocket 2.7 20:47:42 10° NW 20:53:00 41° WSW 20:58:14 10° S
ARIANE 6 FM1 Upper Stage 2.6 20:53:47 10° SSW 20:57:52 85° SE 21:01:53 10° NE
SL-4 R/B 1.6 20:56:47 11° NW 20:59:51 62° NE 21:02:58 10° ESE
Cosmos 1125 Rocket 3.6 20:55:18 10° NNW 21:00:34 81° ENE 21:05:45 10° SSE
Cosmos 2208 Rocket 4.1 20:56:26 10° SSW 21:01:40 85° ESE 21:06:53 10° NNE
SMAP 3.1 20:57:35 10° NNE 21:02:16 87° ESE 21:06:55 10° SSW
Meteor 1-25 Rocket 4.4 20:56:44 10° S 21:02:28 83° E 21:08:18 10° N
Cosmos 1842 4.0 20:59:57 10° N 21:03:08 44° E 21:06:17 10° SSE
CZ-3 R/B 4.3 20:58:28 10° W 21:05:29 14° WSW 21:09:56 10° SSW
Landsat 7 4.0 21:01:40 10° NNE 21:06:19 77° E 21:10:58 10° S
Cosmos 44 3.3 21:02:00 10° SW 21:06:21 49° WNW 21:10:59 10° NNE
Cosmos 1655 Rocket 4.4 21:06:47 10° S 21:13:06 75° E 21:19:24 10° N
KORONAS-FOTON 3.4 21:09:48 10° N 21:13:09 74° W 21:16:30 10° S
S3M 4.0 21:07:18 10° N 21:13:29 85° W 21:19:34 10° S
